Barnstable Municipal Boardman Polando Field
KHYA : now visible

Airfield :











YOU CAN JOIN US ON...

 
LOGIN :

Register | Disclaimer

   EN    FR    IT 

 









Legend :    VFR   Marginal VFR   IFR   Intensive IFR   Very Intensive IFR
Visi :
Ceiling :
>= 8 km
>= 3000ft
5 to 8 km
1000 to 3000 ft
1500m to 5 km
500 to 1000 ft
800 to 1500m
200 to 500 ft
< 800m
< 200 ft
Symbols :   Thunderstorms  Fog  Heavy snow  Heavy precipitations  Wind > 20 kt






- Airport Elevation : 54 ft
- IATA code : HYA


KHYA - Barnstable Municipal Boardman Polando Field

CURRENT METAR :
  • 281856Z VRB04KT 10SM FEW037 BKN048 12/03 A2988 RMK AO2 SLP118 T01220028

EXPIRED METARs :
  • 281756Z VRB05KT 10SM BKN028 BKN038 13/04 A2988 RMK AO2 SLP118 T01280044 10128 20078 56015
  • 281656Z VRB05KT 10SM FEW110 13/04 A2988 RMK AO2 SLP119 T01280044

TAF KHYA
Valid from the 28 at 18:00 until the 29 at 12:00 UTC


281731Z 2818/2912 29005KT P6SM FEW110
FM291100 29007KT P6SM FEW250
KZBW FIR / North America



MET'MAP, your aeronautical weather chart ! - Copyright ORBIFLY December 2007 - Disclaimer

ORBIFLY MET'MAP TEAM :

Programming & Development : Alexandra Zaïnal
Concept & original design : Baudouin d'Aumeries
Assistance for programming : Marc-Olivier Méhu
Technical & hardware support : Manuel Goepfert

Contact : metmap@orbifly.com




SOURCES & CREDITS :

   NOAA       Earth
Advisory